Weather History for Dallas Love, TX

Change the Weather History Date:

Thursday, January 24, 2013

  Actual Average Record
Temperature  
Mean Temperature 66 °F -  
Max Temperature 79 °F 55 °F 79 °F (2013)
Min Temperature 53 °F 37 °F 18 °F (2014)
Cooling Degree Days 1    
Growing Degree Days 16 (Base 50)    
Moisture  
Dew Point 53 °F    
Average Humidity 69    
Maximum Humidity 90    
Minimum Humidity 44    
Precipitation  
Precipitation 0.00 in - - ()
Sea Level Pressure  
Sea Level Pressure 30.11 in    
Wind  
Wind Speed 6 mph (SSE)    
Max Wind Speed 12 mph    
Max Gust Speed -    
Visibility 8 miles    
Events      
Averages and records for this station are not official NWS values.
T = Trace of Precipitation, MM = Missing Value Source: NWS Daily Summary

Daily Weather History Graph

Daily Weather History Graph

Search for Another Location

Airport:

Trip Planner

Search our weather history database for the weather conditions in past years. The results will help you decide how hot, cold, wet, or windy it might be!

Date:

Astronomy

Jan. 24, 2013 Rise Set
Actual Time 7:26 AM CST 5:52 PM CST
Civil Twilight 7:00 AM CST 6:18 PM CST
Nautical Twilight 6:30 AM CST 6:48 PM CST
Astronomical Twilight 6:01 AM CST 7:18 PM CST
Moon 3:57 PM CST (1/24) 5:23 AM CST (1/24)
Length of Visible Light 11h 18m
Length of Day
10h 25m
Waxing Gibbous, 94% of the Moon is Illuminated
Jan 24
Waxing Gibbous
Jan 26
Full
Feb 3
Last Quarter
Feb 10
New
Feb 17
First Quarter

Hourly Weather History & Observations

Time (CST) Temp. Dew Point Humidity Pressure Visibility Wind Dir Wind Speed Gust Speed Precip Events Conditions
12:53 AM 63.0 °F 54.0 °F 72% 30.14 in 10.0 mi SW 3.5 mph - N/A   Scattered Clouds
1:53 AM 62.1 °F 53.1 °F 72% 30.14 in 10.0 mi Variable 4.6 mph - N/A   Scattered Clouds
2:53 AM 62.1 °F 53.1 °F 72% 30.14 in 10.0 mi SW 4.6 mph - N/A   Scattered Clouds
3:53 AM 60.1 °F 53.1 °F 78% 30.14 in 10.0 mi SW 4.6 mph - N/A   Partly Cloudy
4:53 AM 54.0 °F 51.1 °F 90% 30.14 in 10.0 mi SSE 3.5 mph - N/A   Scattered Clouds
5:53 AM 54.0 °F 51.1 °F 90% 30.14 in 9.0 mi SE 8.1 mph - N/A   Scattered Clouds
6:53 AM 53.1 °F 50.0 °F 89% 30.15 in 8.0 mi SE 8.1 mph - N/A   Mostly Cloudy
7:53 AM 55.0 °F 52.0 °F 89% 30.16 in 5.0 mi SE 6.9 mph - N/A   Mostly Cloudy
8:32 AM 55.4 °F 51.8 °F 88% 30.18 in 2.5 mi ESE 5.8 mph - N/A   Mostly Cloudy
8:53 AM 55.9 °F 53.1 °F 90% 30.17 in 2.0 mi ESE 5.8 mph - N/A   Mostly Cloudy
9:40 AM 60.8 °F 53.6 °F 77% 30.17 in 3.0 mi SSE 10.4 mph - N/A   Haze
9:53 AM 61.0 °F 55.0 °F 81% 30.17 in 3.0 mi SSE 11.5 mph - N/A   Haze
10:25 AM 62.6 °F 55.4 °F 77% 30.19 in 4.0 mi SSE 11.5 mph - N/A   Haze
10:36 AM 62.6 °F 55.4 °F 77% 30.19 in 5.0 mi SSE 9.2 mph - N/A   Haze
10:53 AM 64.0 °F 55.0 °F 73% 30.18 in 5.0 mi SSE 8.1 mph - N/A   Haze
11:53 AM 68.0 °F 55.9 °F 65% 30.15 in 9.0 mi SSE 10.4 mph - N/A   Mostly Cloudy
12:53 PM 72.0 °F 57.0 °F 59% 30.11 in 10.0 mi SSE 8.1 mph - N/A   Partly Cloudy
1:53 PM 75.0 °F 55.9 °F 51% 30.08 in 10.0 mi SW 4.6 mph - N/A   Partly Cloudy
2:53 PM 77.0 °F 55.0 °F 47% 30.05 in 10.0 mi Variable 5.8 mph - N/A   Partly Cloudy
3:53 PM 79.0 °F 55.0 °F 44% 30.04 in 10.0 mi SE 10.4 mph - N/A   Partly Cloudy
4:53 PM 79.0 °F 55.0 °F 44% 30.02 in 10.0 mi SSE 11.5 mph - N/A   Clear
5:53 PM 75.9 °F 55.9 °F 50% 30.02 in 10.0 mi SE 10.4 mph - N/A   Clear
6:53 PM 73.9 °F 59.0 °F 59% 30.03 in 10.0 mi SSE 9.2 mph - N/A   Clear
7:53 PM 66.9 °F 50.0 °F 54% 30.04 in 10.0 mi NNW 4.6 mph - N/A   Clear
8:53 PM 63.0 °F 46.9 °F 56% 30.04 in 10.0 mi NNW 5.8 mph - N/A   Scattered Clouds
9:53 PM 62.1 °F 46.9 °F 58% 30.04 in 10.0 mi NW 4.6 mph - N/A   Scattered Clouds
10:53 PM 59.0 °F 48.9 °F 69% 30.03 in 10.0 mi Calm Calm - N/A   Scattered Clouds
11:53 PM 59.0 °F 48.9 °F 69% 30.03 in 10.0 mi Calm Calm - N/A   Scattered Clouds